Location: USNO
(38.9242°N, 77.0663°W)
Time: 12:30:55
(UTC-05:00)

Tiangong 2 - Pass Details

Date: 16 October 2017
Orbit: 386 x 390 km, 42.8° (Epoch: 17 December)

Event Time Altitude Azimuth Distance (km) Brightness Sun altitude
Exits shadow 06:12:40 23° 304° (NW) 892 2.4 -13.6°
Maximum altitude 06:14:24 50° 12° (NNE) 502 1.7 -13.3°
Drops below altitude 10° 06:17:32 10° 90° (E) 1,422 5.5 -12.7°
Sets 06:19:39 0° 95° (E) 2,277 7.1 -12.3°
